This is the latest recevied weather packets stored in our database for station/object KB2M. If no packets are shown the sender has not sent any weather packets the latest 1 day(s).
| Time | Temp. | Humidity | Pressure | Rain* | Wind** | Luminosity | Snow |
|---|---|---|---|---|---|---|---|
| 1778068332 | 20° C | 83% | 1018.2 hPa | 0 mm | - | - | - |
| 1778066530 | 18.89° C | 85% | 1017.9 hPa | 0 mm | - | - | - |
| 1778065929 | 18.89° C | 87% | 1017.9 hPa | 0 mm | - | - | - |
| 1778063496 | 18.33° C | 86% | 1017.6 hPa | 0 mm | - | - | - |
| 1778062895 | 18.89° C | 85% | 1017.6 hPa | 0 mm | - | - | - |
| 1778060492 | 18.33° C | 85% | 1017.6 hPa | 0 mm | - | - | - |
| 1778059291 | 18.89° C | 83% | 1017.6 hPa | 0 mm | - | - | - |
| 1778058690 | 18.33° C | 84% | 1017.6 hPa | 0 mm | - | - | - |
| 1778056888 | 18.33° C | 84% | 1017.2 hPa | 0 mm | - | - | - |
| 1778056288 | 18.89° C | 84% | 1017.2 hPa | 0 mm | - | - | - |
| 1778055687 | 18.33° C | 83% | 1017.2 hPa | 0 mm | - | - | - |
| 1778055086 | 18.33° C | 84% | 1017.2 hPa | 0 mm | - | - | - |
| 1778054486 | 18.89° C | 84% | 1017.2 hPa | 0 mm | - | - | - |
| 1778053885 | 18.89° C | 82% | 1017.6 hPa | 0 mm | - | - | - |
| 1778052684 | 18.89° C | 81% | 1017.2 hPa | 0 mm | - | - | - |
| 1778052083 | 18.89° C | 81% | 1017.2 hPa | 0 mm | - | - | - |
| 1778051482 | 18.33° C | 80% | 1017.6 hPa | 0 mm | - | - | - |
| 1778050882 | 18.89° C | 80% | 1017.6 hPa | 0 mm | - | - | - |
| 1778049080 | 18.89° C | 80% | 1017.6 hPa | 0 mm | - | - | - |
| 1778048479 | 18.89° C | 80% | 1017.9 hPa | 0 mm | - | - | - |
| 1778047878 | 18.89° C | 79% | 1017.9 hPa | 0 mm | - | - | - |
| 1778047278 | 19.44° C | 80% | 1017.9 hPa | 0 mm | - | - | - |
| 1778046077 | 19.44° C | 79% | 1018.2 hPa | 0 mm | - | - | - |
| 1778045476 | 19.44° C | 77% | 1018.2 hPa | 0 mm | - | - | - |
| 1778044875 | 20° C | 77% | 1018.2 hPa | 0 mm | - | - | - |
* Rain latest hour (hover to see other rain measurements)
** Current wind speed in m/s (hover to see current wind gust speed)